Weather History for LKNA - December, 2012

Change the Weather History Date:

Friday, December 28, 2012

  Actual Average Record
Temperature  
Mean Temperature 30 °F -  
Max Temperature 37 °F - - ()
Min Temperature 23 °F - - ()
Degree Days  
Heating Degree Days 34    
Moisture  
Dew Point 31 °F    
Average Humidity 93    
Maximum Humidity 100    
Minimum Humidity 80    
Precipitation  
Precipitation 0.00 in - - ()
Sea Level Pressure  
Sea Level Pressure 30.14 in    
Wind  
Wind Speed 7 mph ()    
Max Wind Speed 15 mph    
Max Gust Speed -    
Visibility 5.1 miles    
Events Fog , Rain , Snow    
T = Trace of Precipitation, MM = Missing Value Source: Averaged Metar Reports

Daily Weather History Graph

Daily Weather History Graph

Search for Another Location

Airport or City:

Trip Planner

Search our weather history database for the weather conditions in past years. The results will help you decide how hot, cold, wet, or windy it might be!

Date:

Astronomy

Dec. 28, 2012 Rise Set
Actual Time 7:50 AM CET 4:04 PM CET
Civil Twilight 7:12 AM CET 4:42 PM CET
Nautical Twilight 6:31 AM CET 5:22 PM CET
Astronomical Twilight 5:53 AM CET 6:01 PM CET
Moon 4:30 PM CET (12/28) 7:27 AM CET (12/28)
Length of Visible Light 9h 29m
Length of Day
8h 14m
Full, 100% of the Moon is Illuminated
Dec 28
Full
Jan 5
Last Quarter
Jan 11
New
Jan 19
First Quarter
Jan 27
Full

Hourly Weather History & Observations

Time (CET) Temp. Windchill Dew Point Humidity Pressure Visibility Wind Dir Wind Speed Gust Speed Precip Events Conditions
12:00 AM 33.8 °F 28.6 °F 33.8 °F 100% 29.80 in 0.3 mi South 5.8 mph - N/A Fog Fog
12:27 AM 33.8 °F 28.6 °F 33.8 °F 100% 29.80 in 1.0 mi South 5.8 mph - N/A   Overcast
1:00 AM 35.6 °F 31.7 °F 35.6 °F 100% 29.80 in 2.5 mi SW 4.6 mph - N/A Rain Light Rain
2:00 AM 37.4 °F 30.8 °F 37.4 °F 100% 29.83 in 6.2 mi West 9.2 mph - N/A Rain Light Rain
3:00 AM 37.4 °F 30.8 °F 35.6 °F 93% 29.83 in 6.2 mi WNW 9.2 mph - N/A   Mostly Cloudy
4:00 AM 37.4 °F 32.1 °F 35.6 °F 93% 29.83 in 6.2 mi West 6.9 mph - N/A   Mostly Cloudy
5:00 AM 37.4 °F 33.8 °F 35.6 °F 93% 29.86 in 6.2 mi WSW 4.6 mph - N/A   Mostly Cloudy
7:00 AM 37.4 °F 32.8 °F 37.4 °F 100% 29.95 in 6.2 mi NW 5.8 mph - N/A Rain Light Rain
8:00 AM 35.6 °F 29.2 °F 33.8 °F 93% 30.01 in 3.7 mi NNW 8.1 mph - N/A Rain , Snow Light Rain
9:00 AM 35.6 °F 29.2 °F 35.6 °F 100% 30.06 in 5.0 mi NNW 8.1 mph - N/A Rain Light Rain
10:00 AM 37.4 °F 31.4 °F 35.6 °F 93% 30.12 in 6.2 mi NNW 8.1 mph - N/A   Mostly Cloudy
11:00 AM 35.6 °F 26.2 °F 33.8 °F 93% 30.18 in 6.2 mi NW 15.0 mph - N/A   Mostly Cloudy
12:00 PM 35.6 °F 27.1 °F 33.8 °F 93% 30.21 in 6.2 mi NNW 12.7 mph - N/A   Mostly Cloudy
1:00 PM 33.8 °F 24.8 °F 32.0 °F 93% 30.27 in 6.2 mi NNW 12.7 mph - N/A   Mostly Cloudy
2:00 PM 33.8 °F 26.4 °F 28.4 °F 81% 30.30 in 6.2 mi NNW 9.2 mph - N/A   Mostly Cloudy
3:00 PM 32.0 °F 22.5 °F 26.6 °F 80% 30.33 in 6.2 mi NW 12.7 mph - N/A   Scattered Clouds
4:00 PM 30.2 °F 20.2 °F 26.6 °F 86% 30.33 in 6.2 mi NW 12.7 mph - N/A   Scattered Clouds
5:00 PM 28.4 °F 19.1 °F 24.8 °F 86% 30.36 in - NW 10.4 mph - N/A   Clear
6:00 PM 28.4 °F 20.4 °F 24.8 °F 86% 30.39 in - NNW 8.1 mph - N/A   Clear
7:00 PM 26.6 °F 19.1 °F 24.8 °F 93% 30.42 in - NNW 6.9 mph - N/A   Clear
8:00 PM 26.6 °F 21.2 °F 24.8 °F 93% 30.42 in - NNW 4.6 mph - N/A   Clear
9:00 PM 24.8 °F 20.5 °F 23.0 °F 93% 30.42 in - NNE 3.5 mph - N/A   Clear
10:00 PM 24.8 °F - 23.0 °F 93% 30.42 in - NW 2.3 mph - N/A   Clear
11:00 PM 23.0 °F - 21.2 °F 93% 30.42 in - Calm Calm - N/A   Clear